Location: downtown San Diego
(32.7310°N, 117.1990°W)
Time: 17:31:54
(UTC-07:00)

Cosmos 1844 Rocket - Pass Details

Date: 14 June 2018
Orbit: 824 x 845 km, 71.0° (Epoch: 24 June)

Event Time Altitude Azimuth Distance (km) Brightness Sun altitude
Exits shadow 23:11:24 78° 330° (NNW) 867 2.7 -29.3°
Drops below altitude 10° 23:16:48 10° 18° (NNE) 2,467 5.7 -29.8°
Sets 23:19:16 0° 20° (NNE) 3,403 6.5 -30.0°
